星链-33830 (STARLINK-33830)

导读

STARLINK-33830是美国SpaceX星链星座的卫星,于2025年4月14日发射,属于星链低轨互联网星座组网卫星,旨在为全球提供高速低延迟宽带互联网服务,尤其服务偏远地区与移动场景。星链卫星运行在近地轨道,该卫星发射延续了SpaceX批量部署星链的节奏,进一步扩充了星座规模,提升全球覆盖能力。

Basic Information
目录编号:
63587
目录名称:
STARLINK-33830
国际标识:
2025-076U
轨道中心:
EARTH
卫星名称:
星链-33830
卫星全名:
星链-33830 (STARLINK-33830)
卫星状态:
在轨 (已飞行508 天)
发射日期:
2025-04-14 UTC
国别 :
美国 (US)
星等 :
--
Orbit Information
数据来源 国际轨道数据
星历时间: 2026-09-03T18:20:29+0800
22小时前
查看轨道信息
半长轴: 6861.102km
偏心率: 0.0001783
轨道倾角: 43.003°
近地点辐角 282.397°
升交点赤经 37.899°
平近点角 77.668°
近地点: 481.741km
远地点: 484.189km
周期: 94.265分钟
每日圈数: 15.276083
Detailed Information
固有亮度:
5
最大亮度:
2.5
卫星平台:
Starlink V1.0
覆盖范围:
全球
运营商:
太空探索技术公司
运营商所在国:
美国
制造商(研发单位):
太空探索技术公司
制造商所在国:
美国
使用方式:
暂无
Satellite Introduction
Starlink 计划是 SpaceX 推出的全球卫星互联网项目,通过发射低轨道卫星,为全球尤其是偏远地区提供高速、低延迟的互联网服务。自 2019 年起,Starlink 已部署数千颗卫星,旨在缩小全球数字鸿沟,推动互联网普及。该项目还为军事、航空等行业提供通信支持,带来广泛经济效益。
2D Orbit Map
3D Orbit Map
Orbit Altitude Analysis Chart
Orbit Inclination Analysis Chart
Orbit Comprehensive Analysis Chart
View Comprehensive Chart
Conjunction Data List
Event ID Objects TCA Miss Dist (km) Collision Risk Probability Collision Risk Index (CRI) Action
CDM_260904-044005-714506-358722
2026-09-04T
04:40:52+0000
0.625 km
远距离
5.860807E-5 中风险 0.7
CDM_260904-120805-705806-358721
2026-09-04T
12:08:22+0000
0.846 km
远距离
3.628069E-5 中风险 0.66
CDM_260904-101005-714506-358723
2026-09-04T
10:10:24+0000
0.754 km
远距离
3.304513E-5 中风险 0.65
CDM_260904-134105-682606-358722
2026-09-04T
13:41:58+0000
1.192 km
极远距离
1.113339E-5 中风险 0.56
CDM_260903-232705-940006-358722
2026-09-03T
23:27:08+0000
1.162 km
极远距离
1.009686E-5 中风险 0.55
CDM_260906-190105-707106-358721
2026-09-06T
19:01:28+0000
1.384 km
极远距离
6.516484E-6 低风险 0.51
CDM_260906-044205-752506-358721
2026-09-06T
04:42:16+0000
1.226 km
极远距离
5.037689E-6 低风险 0.49
CDM_260906-172705-707106-358721
2026-09-06T
17:27:19+0000
1.547 km
极远距离
4.536678E-6 低风险 0.48
CDM_260903-215205-940006-358721
2026-09-03T
21:52:59+0000
1.691 km
极远距离
2.970245E-6 低风险 0.44
CDM_260905-043605-682606-358721
2026-09-05T
04:36:25+0000
1.879 km
极远距离
2.618076E-6 低风险 0.43